Location: Bouillancy
(49.1149°N, 2.9308°E)
Time: 11:28:29
(UTC+00:00)

OBJECT-B - Pass Details

Date: 30 September 2020
Orbit: 421 x 433 km, 97.0° (Epoch: 09 October)

Event Time Altitude Azimuth Distance (km) Brightness Sun altitude
Exits shadow 19:55:52 28° 344° (NNW) 835 2.6 -24.3°
Drops below altitude 10° 19:57:33 10° 346° (NNW) 1,534 4.1 -24.6°
Sets 19:59:35 0° 347° (NNW) 2,408 5.1 -24.9°
